User: anonymous   Login
Location: Zlin
(49.2330°N, 17.6670°E)
Time: 16:29:01
(UTC+01:00)
Language:

ISS - Orbit

View from above orbital plane
View from above orbital plane
View from above satellite
View from above satellite

Ground track
Ground track

The orbit data is extracted from the following two-line orbital elements,

1 25544U 98067A   15030.46940100  .00016298  00000-0  25250-3 0  7972
2 25544 051.6463 051.7069 0005852 307.1009 199.3476 15.54164224926601
Epoch (UTC): 30 January 2015 11:15:56
Eccentricity: 0.0005852
inclination: 51.6463°
perigee height: 400 km
apogee height: 408 km
right ascension of ascending node: 51.7069°
argument of perigee: 307.1009°
revolutions per day: 15.54164224
mean anomaly at epoch: 199.3476°
orbit number at epoch: 92660

The dashed part of the orbit path shows where the satellite is in the earth's shadow,  

DLR